Location: Windsor
(43.2292°N, 89.3015°W)
Time: 09:56:32
(UTC+00:00)

MOZHAYETS 4 - Pass Details

Date: 01 July 2022
Orbit: 660 x 679 km, 98.2° (Epoch: 14 August)

Event Time Altitude Azimuth Distance (km) Brightness Sun altitude
Exits shadow 09:10:57 14° 215° (SW) 1,846 9.3 -10.6°
Maximum altitude 09:13:59 26° 265° (W) 1,315 8.8 -10.2°
Drops below altitude 10° 09:17:52 10° 322° (NW) 2,113 10.4 -9.7°
Sets 09:20:26 0° 335° (NNW) 3,029 11.4 -9.4°
